Theta_e
314 314 314 314 315 314 314 314 314 315 318 321 323 321 321 324 324 323 327 331 330 329 329 328 329 329 330 330 330 329 330 330 330 330 329 329 329 329 329 330 330 330 329 331 334 337 340 342 345 346 346 346 347 348 349 350 350 350 350 351 350 349 347 347 347 347 346 346 346 345 345 345 345 345 345 345 345 344 340 336 332 331 333 335 334 329 327
313 313 313 313 313 313 313 314 313 315 318 320 323 323 322 325 326 325 327 330 329 328 328 328 329 329 330 330 330 330 330 329 329 330 329 329 329 328 328 328 328 329 328 328 330 333 335 338 341 344 345 346 346 346 347 349 350 350 350 351 352 351 349 346 346 347 347 346 345 346 345 345 345 345 344 344 344 344 343 342 340 337 334 335 336 334 329
313 313 312 312 312 313 313 313 313 315 317 319 321 322 323 325 326 326 327 329 328 326 328 330 329 329 330 330 330 330 329 329 329 329 329 329 329 328 328 328 328 328 328 328 329 330 332 335 337 339 343 346 347 347 346 347 348 349 350 350 351 352 352 348 346 345 346 346 345 345 345 345 345 345 345 345 344 344 344 344 344 343 341 338 337 338 337
313 312 312 311 311 312 311 313 314 314 316 319 321 322 323 325 327 327 326 328 328 326 327 328 328 328 329 329 329 329 329 328 328 328 328 328 329 329 329 328 328 328 328 329 329 328 330 333 335 336 339 343 346 347 347 347 348 348 350 351 351 351 352 352 348 345 344 344 345 345 344 345 345 345 345 345 345 344 344 345 345 344 345 344 342 342 342
313 312 311 311 311 311 311 313 315 316 318 321 322 322 323 324 325 326 326 326 327 327 327 326 326 328 329 328 328 328 328 328 328 327 327 327 328 328 328 328 328 328 328 328 328 328 329 330 332 334 336 339 342 346 347 348 349 348 349 350 351 351 352 352 351 349 346 343 344 345 345 345 344 344 344 344 345 345 345 344 345 345 345 345 345 345 344
313 312 311 312 312 311 313 314 316 318 318 320 321 322 322 323 323 324 326 326 326 326 326 325 326 327 327 327 327 326 326 327 326 326 327 327 327 327 327 328 328 328 328 327 327 327 328 329 330 332 334 336 338 341 343 346 349 349 349 349 350 350 351 351 353 352 350 347 344 343 344 345 344 344 344 344 344 344 345 344 344 345 346 345 345 346 346
314 312 311 312 312 312 315 315 316 317 317 318 320 321 321 322 323 324 325 324 324 325 326 325 326 326 326 326 326 325 325 325 325 325 325 325 325 326 326 327 327 328 328 328 326 325 325 326 329 331 333 333 335 338 339 341 344 347 350 350 350 349 349 350 352 353 353 352 349 345 344 344 345 344 344 345 345 344 345 346 346 345 346 346 346 345 346
314 312 311 312 313 314 315 315 315 317 317 317 319 321 320 320 321 322 322 323 324 324 323 323 323 324 325 326 326 325 323 323 322 322 323 323 323 324 325 325 326 327 328 327 326 324 324 325 326 329 332 332 333 336 338 339 339 342 345 349 350 350 349 348 350 352 354 354 353 350 346 343 345 345 345 345 346 345 345 346 348 348 346 346 346 347 347
314 312 311 313 314 314 314 315 316 317 318 318 319 320 320 321 321 321 321 321 321 321 321 321 322 322 324 326 326 325 322 321 320 320 320 321 321 322 323 323 324 325 326 327 326 326 326 326 324 325 329 331 331 334 336 337 337 339 341 343 347 350 350 350 349 350 352 354 354 354 351 346 344 346 346 346 346 346 346 346 348 349 348 347 347 347 347
314 313 312 313 312 313 316 317 317 317 318 319 319 317 318 321 322 321 321 320 319 320 320 320 320 321 322 324 326 324 321 319 318 318 319 320 320 320 321 322 323 323 324 325 326 327 328 326 323 323 326 327 329 332 335 335 335 337 339 339 341 345 349 350 350 349 350 352 354 355 354 351 348 346 346 347 347 347 347 348 348 349 350 350 350 349 348
314 313 313 313 312 314 319 319 318 317 317 317 318 315 316 321 322 319 320 321 319 319 319 319 319 320 320 322 323 321 318 317 316 317 318 319 319 319 319 320 321 321 323 324 325 327 328 326 325 324 323 324 326 330 332 334 335 335 336 338 339 341 344 348 351 350 350 351 354 356 356 355 353 351 348 347 348 348 348 349 349 349 351 352 352 352 351
314 314 313 313 314 317 319 318 316 317 315 316 317 316 317 321 320 318 319 319 318 318 317 317 318 318 318 320 319 317 315 315 315 316 317 317 317 318 318 318 319 319 321 323 324 326 326 325 326 326 324 322 324 326 328 332 334 334 333 335 337 338 340 342 346 350 350 350 352 355 357 357 356 354 352 351 350 351 351 351 352 352 352 353 353 354 353
314 314 314 313 315 317 318 317 317 316 315 316 316 317 319 320 319 317 317 317 317 317 316 316 317 317 317 317 316 314 314 315 315 315 316 316 316 317 318 317 316 317 319 321 322 324 325 325 325 327 326 323 322 324 325 327 331 332 332 333 335 336 338 338 339 344 349 351 351 353 356 358 357 355 354 354 354 355 354 354 355 354 354 354 354 355 355
314 315 315 314 315 317 318 317 317 316 315 315 316 318 319 319 318 317 316 315 315 316 315 315 316 316 315 315 314 314 314 314 315 315 315 315 315 316 316 316 315 316 318 319 320 322 323 324 325 326 327 325 322 322 324 325 327 330 331 331 331 333 336 337 336 338 342 347 351 352 353 356 358 356 355 354 355 356 356 356 356 356 356 355 355 355 356
315 315 316 315 316 317 317 317 317 316 315 316 317 318 317 316 316 316 315 315 315 314 314 314 314 314 314 314 314 315 315 315 315 315 315 316 315 315 315 316 317 317 317 316 318 320 322 323 324 324 326 325 323 321 322 324 325 327 329 330 329 330 333 337 337 336 336 339 345 349 351 353 355 355 355 355 354 354 355 355 356 358 357 357 357 357 358
315 315 316 316 316 317 317 316 317 317 317 317 318 317 317 316 315 315 315 315 314 314 313 313 313 313 313 313 314 315 315 315 315 315 315 316 316 315 315 316 317 318 317 315 316 318 319 321 323 323 324 325 323 321 321 322 324 325 327 329 330 329 331 335 336 336 336 335 336 342 348 352 353 353 354 354 355 354 354 354 357 359 359 358 359 359 359
315 315 317 317 317 317 316 316 318 318 318 317 316 315 315 316 315 314 314 314 314 313 313 313 313 313 313 314 314 314 315 315 315 315 315 315 316 316 316 315 316 317 317 316 313 313 315 318 321 323 323 324 324 322 320 321 322 324 326 328 330 329 330 332 334 336 337 336 334 336 342 348 352 353 353 354 354 354 354 355 357 359 358 359 360 360 360
316 316 316 317 317 316 316 316 317 317 316 316 315 314 314 315 314 314 313 313 313 313 312 313 313 313 313 314 314 314 314 314 314 315 315 315 315 316 316 316 316 315 316 315 313 312 312 316 320 323 323 324 324 322 320 320 321 323 324 327 328 328 329 331 332 335 337 337 336 335 337 343 348 351 352 353 354 355 355 356 357 358 358 359 360 360 359
316 315 315 316 315 315 316 315 316 316 315 315 315 314 314 314 314 313 313 313 313 312 312 313 313 314 313 313 313 313 313 313 313 314 314 314 314 315 315 316 316 315 315 315 315 315 314 313 317 322 324 324 323 320 318 318 320 321 323 325 326 328 328 330 333 334 336 336 336 336 336 338 344 349 352 353 354 355 356 356 357 358 358 359 360 359 359
315 315 316 317 316 316 316 315 315 315 315 316 315 314 314 314 313 313 313 313 312 312 312 313 313 314 313 313 313 313 312 313 313 313 313 313 314 314 315 315 315 315 316 316 316 317 316 315 314 317 321 324 323 320 317 317 319 320 321 323 324 326 327 330 332 333 334 335 337 337 337 337 338 343 348 351 352 354 354 355 356 357 357 358 358 359 359
315 315 317 317 316 316 316 315 315 315 315 315 315 314 313 313 313 313 313 312 312 312 312 313 313 313 312 312 312 312 311 311 312 312 312 312 312 313 314 314 315 315 315 316 316 317 317 316 315 314 317 321 323 322 319 318 318 319 320 321 323 325 326 328 331 332 333 335 337 337 337 338 337 337 339 344 349 351 353 354 355 356 357 358 358 359 360
315 315 317 317 316 316 315 315 315 315 315 315 315 314 313 313 313 313 313 312 312 312 312 312 312 312 312 311 311 311 311 311 311 311 312 312 312 313 313 314 314 314 315 315 316 316 316 317 317 315 315 319 322 323 322 321 319 317 319 321 321 323 325 326 328 330 331 333 334 335 334 334 337 338 337 338 342 347 349 352 354 355 356 357 358 359 360
315 316 317 317 316 315 316 315 314 314 314 314 314 313 313 313 313 313 313 313 313 313 312 312 311 311 311 310 310 311 311 310 311 311 311 312 312 313 313 313 314 314 315 315 316 316 316 317 318 317 316 318 321 323 323 323 320 316 318 320 321 322 323 324 326 328 330 330 332 332 332 331 332 335 338 338 339 341 343 345 349 352 355 357 358 359 360
316 316 317 317 316 316 315 314 313 313 313 313 313 313 313 313 313 313 313 313 313 312 311 311 311 311 311 311 311 311 311 310 311 311 311 312 312 313 313 314 314 314 314 314 315 316 316 317 318 318 318 319 321 322 322 323 321 318 318 321 321 321 322 323 324 326 328 329 330 331 333 333 329 328 331 336 338 339 339 340 342 346 350 353 356 358 359
316 315 316 317 316 315 315 314 314 314 313 312 312 313 313 313 313 313 312 312 312 311 310 311 311 311 311 311 311 311 310 311 311 311 312 312 313 313 313 313 313 313 314 314 315 315 316 317 318 318 318 319 321 322 322 322 322 320 319 319 320 320 320 321 323 324 325 327 328 330 331 332 330 326 325 329 334 337 339 340 340 341 344 348 352 356 358
315 315 315 316 315 315 314 314 314 314 313 313 313 313 314 313 313 312 312 312 311 311 311 311 311 311 311 311 310 310 310 310 311 311 312 312 312 312 312 312 312 313 313 314 315 315 316 317 318 318 319 320 321 322 322 321 321 321 320 319 319 319 320 320 321 322 324 325 326 327 328 329 330 329 326 325 329 334 337 338 339 340 341 343 347 352 356
315 315 315 316 316 315 315 315 314 314 314 313 313 313 314 313 312 313 312 312 311 311 311 311 311 311 310 310 310 310 310 311 311 311 311 311 311 311 311 311 312 312 313 313 314 314 315 316 317 318 319 320 320 322 322 321 321 321 320 319 319 319 320 320 321 321 322 323 324 325 326 328 330 330 328 325 327 332 335 337 338 340 341 341 343 346 351
316 315 315 316 316 315 315 315 314 313 313 314 313 313 313 312 312 312 312 311 311 311 311 311 310 310 310 310 310 310 310 311 311 311 310 310 310 310 310 311 312 313 313 313 313 314 315 316 317 318 319 319 319 320 321 320 320 320 320 320 319 319 320 321 321 321 321 322 323 323 324 326 328 330 330 327 326 329 332 335 336 338 340 342 342 343 346
316 316 316 315 315 315 315 314 313 313 314 314 313 313 312 312 312 312 312 312 311 311 311 310 310 310 309 309 310 310 310 310 310 310 310 310 310 309 310 311 314 315 315 314 314 314 314 316 318 319 318 318 319 320 320 319 320 320 321 320 320 319 320 320 320 320 320 320 321 322 323 323 325 328 330 329 326 325 329 332 334 336 338 340 342 343 344
316 316 316 316 315 315 315 315 313 313 314 314 313 313 312 312 311 311 311 311 311 311 310 310 309 309 309 309 310 310 310 310 309 309 309 309 309 309 309 312 315 316 316 315 314 314 315 316 317 318 318 318 319 319 319 319 319 319 319 319 320 320 320 319 319 319 319 319 320 321 322 322 324 326 328 329 328 325 326 329 332 334 335 338 340 341 343
316 316 316 316 315 315 315 314 314 314 314 314 313 313 312 312 312 311 311 311 311 310 310 309 309 309 309 310 310 310 309 309 309 309 309 309 308 308 309 310 312 314 315 316 316 315 316 318 318 318 318 319 319 319 318 318 319 319 319 319 320 319 319 318 317 317 318 319 320 320 320 321 322 324 327 328 328 328 327 328 330 332 333 335 337 339 341
316 315 315 315 315 315 315 315 315 315 314 314 313 312 312 312 312 311 311 310 310 309 309 309 309 309 309 310 309 309 309 308 308 308 308 308 308 308 308 309 310 311 313 315 317 317 318 318 318 318 319 318 318 318 318 317 317 318 318 319 318 318 317 315 315 316 317 318 319 319 320 320 321 323 325 326 327 327 327 327 328 329 330 332 334 336 338
316 316 316 315 315 315 315 315 315 315 314 314 313 312 312 311 311 311 310 310 310 309 309 308 308 309 309 309 309 308 308 308 308 307 307 307 307 307 307 308 309 309 310 312 314 316 317 317 317 317 317 317 316 317 318 317 317 318 318 317 317 316 316 315 314 314 316 317 318 319 320 320 321 322 324 325 326 326 327 327 327 328 329 330 332 333 336
316 316 316 316 316 316 315 316 316 315 314 313 313 312 312 311 310 310 310 309 309 309 308 308 309 309 309 309 308 308 308 307 307 307 306 306 306 306 306 306 307 308 308 309 310 312 313 313 313 314 314 314 315 317 318 317 316 317 317 316 316 316 316 316 314 314 315 316 318 319 319 320 321 323 325 326 325 325 325 326 327 327 328 330 331 332 333
316 316 315 316 315 315 315 315 315 314 313 313 313 312 311 311 310 310 309 309 309 308 308 308 309 309 309 309 308 307 307 307 307 306 306 306 306 306 305 305 306 307 308 308 308 309 310 311 311 311 311 312 314 315 316 315 314 315 315 315 315 316 316 316 316 316 316 317 318 319 319 321 322 323 324 325 326 325 325 325 326 327 328 330 330 331 332
316 315 315 316 315 314 314 314 314 314 313 313 313 312 311 311 310 309 309 309 308 308 308 308 309 309 309 308 308 307 307 307 306 306 305 305 305 305 305 305 305 306 307 307 307 307 308 308 309 309 310 311 312 313 314 313 313 313 313 314 314 315 316 316 316 316 316 317 318 319 319 320 321 323 324 325 325 325 325 326 326 327 328 329 330 331 333
316 316 315 315 315 314 314 313 313 313 313 312 312 311 311 310 309 309 309 309 308 308 308 308 309 308 308 308 308 307 307 306 305 305 305 305 305 305 305 305 304 305 306 306 306 306 306 307 307 308 308 309 310 310 311 311 312 312 312 313 314 314 315 315 316 316 316 317 317 318 318 319 320 322 323 324 325 325 325 326 327 327 326 327 328 329 331
314 315 315 315 314 314 313 313 312 312 312 311 311 310 310 309 309 309 309 308 307 307 308 308 308 308 308 307 307 306 305 305 304 304 304 304 304 304 304 304 304 304 305 305 305 305 305 306 306 307 307 307 308 308 309 309 309 310 311 312 312 313 314 315 315 315 315 316 317 317 318 319 320 321 321 322 323 324 324 325 326 325 325 324 324 326 329
311 312 313 313 313 312 312 312 311 311 311 310 310 309 309 308 308 308 308 308 307 307 307 308 308 308 307 306 306 305 305 304 304 304 304 304 303 303 304 303 302 302 303 304 304 304 304 305 305 306 306 306 307 307 307 308 308 309 309 310 311 312 313 313 313 314 315 317 317 317 318 319 320 320 320 319 321 323 323 324 324 324 323 321 321 323 327
312 311 311 310 310 310 310 309 309 310 310 309 309 308 308 308 308 308 308 307 307 306 307 307 307 307 306 305 305 304 304 304 303 303 303 303 303 303 304 304 302 301 302 303 304 303 303 304 304 304 305 305 305 306 306 307 307 308 309 309 310 311 312 313 313 314 316 317 318 318 319 320 320 320 319 318 319 321 322 322 322 323 322 320 320 322 325
313 312 312 311 310 310 310 309 309 310 309 309 308 308 307 308 308 308 307 307 306 306 306 306 306 305 305 305 304 304 304 303 303 303 302 302 303 303 303 303 303 302 301 302 303 303 303 303 304 304 304 304 304 305 306 307 308 308 309 310 311 311 312 312 312 313 314 317 318 319 320 321 320 320 319 318 318 318 320 321 322 322 323 322 321 321 322
312 312 312 312 311 311 311 311 311 310 309 308 306 306 307 307 307 307 306 306 306 306 306 305 305 304 304 304 304 304 304 303 303 303 303 302 302 303 302 303 303 302 300 300 302 303 302 302 303 303 303 303 304 304 305 306 307 308 309 310 311 311 311 311 311 312 313 315 317 318 319 320 319 319 318 317 316 316 317 319 321 321 321 320 319 319 319
311 311 311 311 312 311 311 311 311 310 309 308 307 306 307 307 307 306 306 306 305 305 305 305 304 304 304 304 304 304 304 303 303 303 302 302 302 302 302 302 302 301 300 300 301 302 302 302 302 302 302 302 303 303 304 305 306 306 307 308 308 309 309 310 310 311 311 311 313 315 317 318 319 318 317 316 315 314 315 317 319 319 318 318 317 317 317
309 309 309 309 311 311 311 311 311 311 310 308 307 307 307 307 306 306 306 305 305 305 305 305 305 304 304 304 304 303 303 303 303 302 302 301 301 302 301 301 301 301 300 300 301 301 301 301 301 301 301 301 302 303 303 304 304 305 306 306 306 307 308 308 309 309 309 309 310 312 314 316 317 318 317 315 313 313 314 315 316 316 316 315 315 315 315
309 308 307 307 309 310 311 311 311 311 310 309 308 308 308 307 306 306 305 305 305 305 305 304 304 304 304 304 303 303 303 303 302 302 301 301 301 301 301 300 300 300 300 300 300 300 300 300 300 300 300 301 301 301 302 302 303 303 304 304 305 305 306 307 308 308 308 307 307 309 311 313 315 316 316 314 312 311 312 313 313 313 313 313 313 313 312
309 308 307 307 308 308 310 310 311 310 310 309 308 309 308 307 306 305 305 305 305 305 305 304 304 304 304 303 303 302 302 302 302 301 301 301 300 300 300 300 299 299 300 300 300 299 299 299 299 299 300 300 301 301 301 301 301 301 302 302 303 304 304 305 306 307 307 306 306 306 307 309 311 313 314 313 310 309 309 310 311 310 310 310 311 311 310
308 308 308 307 307 307 308 309 309 309 309 308 308 308 307 306 306 305 306 305 305 305 305 304 304 304 304 303 302 302 302 302 302 301 301 301 300 300 300 299 299 299 299 300 299 298 297 297 298 299 299 299 300 300 300 300 300 300 301 301 301 302 303 303 304 305 305 306 305 305 305 306 308 310 311 311 309 308 307 308 309 309 308 309 309 309 309
307 308 307 307 306 306 306 307 307 307 307 308 307 307 306 306 306 306 305 305 305 305 304 304 304 303 303 302 302 302 302 302 302 301 301 301 300 300 300 299 299 299 299 299 299 298 296 296 297 298 298 299 299 299 299 299 300 300 300 300 300 301 301 302 302 303 304 305 305 304 303 304 306 307 308 309 308 307 306 306 307 307 307 307 308 308 308
307 307 307 306 306 306 306 306 306 305 306 307 307 306 306 306 306 305 305 305 305 305 305 304 304 303 302 302 302 302 302 302 302 301 301 301 300 300 300 299 298 298 298 298 298 298 296 296 296 297 297 297 297 297 298 298 299 299 299 299 300 300 300 301 301 302 303 304 304 303 302 302 303 304 305 305 305 305 305 306 306 306 306 306 306 307 307
307 307 306 306 306 305 305 305 306 306 306 307 307 307 306 305 305 305 305 305 305 305 305 305 304 303 302 302 302 301 302 302 301 301 301 300 300 300 299 299 298 298 298 298 298 297 297 296 296 296 296 296 296 296 296 296 297 298 298 299 299 299 300 300 301 301 302 303 303 303 302 301 302 303 304 304 304 304 304 305 305 305 304 304 305 305 305
306 305 304 305 305 305 305 305 305 306 307 307 306 305 305 305 305 305 305 305 305 305 305 304 303 302 302 301 301 301 301 301 301 301 300 300 300 299 299 299 298 298 298 298 297 297 297 297 296 296 296 296 295 295 295 295 295 295 296 296 297 298 298 299 299 300 300 301 302 302 302 301 301 302 302 302 302 302 302 302 302 301 301 302 302 301 301
305 304 303 305 306 306 306 306 306 306 306 306 306 305 305 305 305 305 305 304 305 305 304 303 302 302 301 301 301 301 301 301 301 301 300 300 300 299 299 299 298 298 298 298 298 297 297 297 296 295 295 295 295 295 295 295 294 294 294 294 294 295 295 296 297 297 298 298 298 299 299 299 299 299 299 299 299 299 299 299 298 299 299 299 299 299 299
Wind_Speed
6 6 5 3 2 2 2 2 2 3 3 2 3 4 4 4 1 5 8 7 9 9 7 6 6 6 7 9 10 11 12 13 13 14 16 17 19 21 22 23 24 26 27 26 25 24 22 18 14 9 1 6 11 11 10 10 13 16 18 21 25 28 29 27 27 28 28 28 30 30 30 30 29 29 30 29 27 27 27 26 26 27 27 27 26 27 28
6 5 4 3 1 1 2 1 1 1 1 2 4 4 5 5 6 9 10 9 8 7 5 5 5 4 6 7 7 9 11 12 13 14 15 17 18 20 21 22 22 24 26 26 24 23 23 21 19 15 10 3 4 8 10 10 12 15 16 18 21 24 27 29 28 28 28 29 30 31 31 31 30 30 31 31 31 30 29 27 26 26 27 27 27 28 29
4 3 2 2 1 1 3 2 2 2 2 3 3 3 4 5 6 9 10 9 8 4 3 5 4 3 4 5 6 7 9 10 11 12 14 16 17 18 19 20 21 22 23 25 25 24 23 22 21 18 14 10 7 4 7 9 11 14 14 15 19 21 24 27 28 30 31 30 31 32 32 31 31 30 31 32 33 33 31 30 29 28 28 28 28 28 28
4 3 1 1 1 2 4 5 5 5 4 3 3 3 2 1 5 9 8 6 6 5 4 5 3 2 3 5 6 6 7 9 10 11 12 14 15 16 17 18 20 21 21 22 24 24 22 20 20 20 17 12 10 8 5 6 8 11 12 13 16 19 21 23 26 29 31 31 32 32 33 32 32 32 32 33 33 34 33 32 31 31 30 30 30 29 29
3 4 1 1 2 5 5 4 5 4 4 3 3 4 2 1 1 4 4 3 6 6 3 3 2 2 4 5 5 6 7 8 9 10 11 12 13 14 15 16 18 19 20 20 21 22 22 20 18 19 19 15 12 10 8 6 7 10 12 13 14 16 18 20 23 26 28 30 32 32 32 32 32 33 34 34 33 33 33 34 34 33 32 31 31 31 31
3 4 3 3 5 5 2 5 5 3 2 3 3 4 5 2 1 1 4 5 6 5 2 1 1 1 2 3 3 5 7 7 8 9 10 11 12 12 14 15 16 17 19 20 20 19 21 21 19 17 17 16 14 12 10 8 7 7 10 13 15 16 18 18 20 23 24 26 30 32 31 32 32 33 33 33 33 33 33 34 35 34 33 32 32 32 32
2 4 4 5 4 2 5 6 5 4 2 1 2 4 4 2 1 4 5 4 4 3 2 1 0 1 1 1 0 4 6 7 8 9 10 11 12 12 13 14 15 16 18 19 21 20 19 21 21 19 16 15 15 13 12 10 10 8 8 11 14 17 20 19 18 20 21 23 27 30 31 32 32 32 32 32 32 33 33 33 33 33 32 32 33 33 32
2 4 5 4 2 4 6 5 4 5 3 4 4 4 5 4 3 4 5 4 4 3 2 1 2 3 4 4 3 0 4 7 9 10 11 12 13 13 13 14 15 16 16 18 20 20 19 19 20 19 18 16 14 13 12 11 10 9 8 8 10 15 20 21 20 19 19 20 24 27 30 32 32 30 30 30 30 31 32 31 30 31 32 32 32 32 32
2 4 5 3 3 4 6 5 5 5 4 4 4 3 5 8 4 3 5 5 4 4 2 1 3 4 5 6 6 4 3 7 9 10 11 12 13 13 13 13 13 14 15 16 17 18 19 19 18 18 18 19 16 12 11 13 12 10 8 7 8 11 16 21 23 23 21 21 23 25 27 30 32 30 29 29 28 28 30 31 30 30 31 32 32 32 32
3 4 4 4 4 4 5 6 6 5 3 2 1 3 3 9 8 4 5 6 5 4 2 2 4 4 5 6 5 4 3 8 9 11 11 12 13 13 14 14 14 14 15 15 16 16 16 18 18 16 16 18 18 14 11 12 13 13 11 10 10 10 12 18 23 26 25 24 23 22 23 28 31 31 30 29 28 28 29 29 29 29 29 28 30 31 32
3 5 5 4 4 1 5 7 8 7 4 3 2 4 4 9 10 7 5 5 5 3 1 3 4 5 6 4 3 5 8 11 11 12 13 13 14 14 14 15 15 15 16 15 15 15 15 17 18 17 16 16 17 16 14 11 12 13 14 14 14 13 12 13 19 26 29 29 25 21 22 25 29 31 32 31 30 29 29 28 28 27 27 27 27 28 30
4 4 5 4 1 3 7 8 8 8 6 4 5 6 3 8 10 8 6 5 4 2 1 3 4 4 4 4 8 12 15 15 14 13 13 14 15 16 15 15 16 17 16 15 14 14 15 16 17 17 17 16 16 16 16 14 13 13 13 14 15 15 14 14 15 19 26 31 30 25 22 23 26 28 30 30 30 29 28 26 26 26 26 25 26 27 28
4 5 5 5 1 4 8 10 10 9 6 5 6 2 5 10 9 7 5 2 1 1 2 3 4 4 5 9 13 15 15 16 16 15 14 15 16 16 16 17 17 17 16 15 15 15 15 16 16 16 17 18 17 16 16 16 16 15 13 13 14 15 14 14 15 16 18 25 31 31 25 21 24 27 27 26 26 26 25 25 25 26 27 26 25 26 27
5 4 4 5 2 4 9 11 12 10 6 3 2 5 9 9 8 5 2 1 1 1 3 4 4 6 8 10 12 13 14 15 16 17 17 17 17 16 17 18 18 17 16 16 16 16 15 15 15 15 16 17 18 18 17 17 16 16 16 13 12 14 15 13 14 16 16 18 24 31 31 26 25 25 24 24 24 23 23 24 24 24 25 26 27 27 27
5 4 5 6 3 5 11 13 10 9 7 1 7 9 7 6 5 3 2 2 1 2 4 4 5 7 8 10 11 12 13 14 15 17 17 18 18 18 18 18 17 17 18 18 17 17 16 15 15 15 16 16 18 19 18 18 17 16 16 15 13 12 13 13 13 15 17 17 17 22 28 30 28 24 21 22 23 22 22 24 25 25 25 25 26 27 28
5 5 4 2 2 7 14 11 4 5 6 6 7 5 4 4 4 3 2 3 2 2 4 5 7 8 9 10 10 11 12 14 15 16 17 18 19 19 19 18 17 17 19 20 19 19 18 17 17 17 16 16 18 19 19 19 19 17 16 16 14 12 12 12 13 14 16 18 18 16 16 22 28 29 27 26 25 24 25 26 26 26 27 26 25 26 27
5 4 2 3 6 8 12 8 1 4 7 6 3 1 1 3 4 3 2 3 2 3 4 6 7 8 9 9 10 11 12 13 14 16 17 18 19 20 20 20 19 18 20 22 23 23 21 19 18 17 17 17 17 19 19 20 20 19 17 16 15 13 12 12 13 14 15 16 19 18 14 13 19 28 32 32 30 28 29 30 30 29 29 27 27 28 28
4 7 7 4 3 5 8 8 5 6 6 5 4 3 3 4 4 3 3 3 2 3 5 6 8 9 9 10 11 11 12 14 15 16 18 19 20 20 20 21 21 21 22 24 25 25 24 21 18 17 17 17 18 19 20 20 21 20 19 17 16 15 14 13 12 13 14 15 17 19 17 14 14 19 24 29 32 32 31 31 32 32 31 29 29 30 31
3 4 6 7 7 8 9 9 9 8 8 7 6 5 5 5 5 4 4 4 4 5 6 7 8 9 10 11 12 12 14 15 16 16 18 20 21 22 22 22 22 23 24 24 25 25 25 23 20 17 17 17 18 21 21 21 21 21 20 19 18 17 16 15 13 12 12 14 15 17 18 17 16 16 17 19 24 30 34 34 32 30 29 29 28 29 30
7 5 3 4 5 7 9 10 10 11 11 9 8 7 6 6 6 5 5 5 5 6 6 7 8 9 10 11 13 14 15 16 17 18 19 20 22 23 23 23 23 23 24 24 24 24 25 24 23 21 19 18 19 21 22 21 21 21 21 21 20 18 18 17 14 12 12 13 14 15 17 19 19 18 18 17 18 22 28 30 31 30 29 29 29 27 26
9 9 8 8 7 7 10 14 14 13 12 11 9 8 8 8 7 6 6 6 6 7 7 8 8 10 11 12 14 16 17 18 18 19 20 21 22 23 24 24 24 23 24 24 24 24 25 24 24 23 22 20 19 20 21 21 21 21 22 22 21 20 19 19 17 14 12 11 12 14 16 18 19 20 21 22 22 23 23 22 23 25 26 27 28 27 27
8 7 8 9 7 7 10 13 15 14 12 11 11 10 10 9 9 8 8 8 7 8 8 8 9 11 12 14 15 17 18 19 20 20 21 22 22 23 24 25 25 25 25 24 25 25 25 24 23 23 23 22 20 18 18 17 18 20 22 22 23 21 20 20 20 18 14 11 10 12 16 18 19 20 21 23 25 27 29 28 26 25 25 25 25 25 28
10 9 8 8 8 9 10 9 10 12 12 12 12 12 11 10 9 9 8 8 8 8 9 10 11 12 14 15 16 18 19 20 21 21 21 22 23 23 24 25 26 26 26 25 26 26 25 25 24 23 22 22 20 18 17 16 16 19 22 21 22 22 22 22 22 20 18 15 12 11 14 18 20 21 21 22 24 25 28 31 32 32 31 30 29 28 31
15 15 14 11 10 12 12 10 9 10 12 12 12 12 11 10 10 9 9 9 8 9 11 12 12 13 14 15 16 18 20 20 21 21 22 22 23 24 24 24 26 27 28 27 27 27 26 25 25 23 21 21 19 19 19 17 15 17 19 20 20 22 23 23 23 22 21 19 15 12 12 14 18 23 24 24 24 25 25 27 29 31 33 34 33 32 33
19 18 16 13 12 14 13 11 11 11 12 12 11 11 11 11 10 9 10 10 10 11 12 13 13 14 15 16 17 18 19 20 20 21 22 23 23 23 24 25 26 27 29 29 29 28 26 25 24 23 22 21 20 19 20 19 16 15 17 19 21 23 23 24 24 24 23 22 19 16 13 13 16 22 26 28 27 26 25 26 26 28 30 32 33 33 32
18 17 15 13 13 14 13 13 14 14 15 13 11 11 11 11 11 10 10 11 11 11 12 13 14 14 15 16 17 18 19 20 20 21 22 23 23 25 26 27 28 29 30 30 30 30 28 25 24 23 22 21 20 19 19 19 16 14 15 18 21 23 24 24 25 25 24 24 23 20 17 15 15 18 24 29 31 29 27 26 27 27 28 29 30 31 31
15 15 14 13 13 15 16 16 14 14 15 13 12 11 10 10 11 11 10 10 11 11 11 12 13 14 15 15 16 17 18 19 20 20 22 23 25 26 27 29 30 31 32 32 32 31 29 27 25 24 23 21 20 20 22 21 16 14 15 18 20 22 23 23 24 25 25 25 25 23 20 18 15 16 20 26 29 29 28 26 27 28 29 30 31 31 30
14 14 15 15 15 15 16 17 15 13 14 14 13 11 10 10 10 10 10 10 10 10 11 11 12 14 15 15 16 17 18 18 19 20 22 23 23 24 27 31 32 31 31 32 33 31 29 27 25 24 23 21 21 22 23 20 15 13 15 17 19 21 21 20 22 24 25 24 25 24 23 21 18 16 17 21 26 29 29 27 26 28 29 29 30 31 30
13 14 15 16 16 13 13 15 15 14 14 14 13 12 11 11 11 11 11 10 9 9 10 11 12 13 14 15 16 16 16 17 20 20 21 22 22 23 27 30 29 27 26 28 30 30 28 26 24 24 22 20 21 24 23 18 14 13 14 15 18 20 21 21 23 24 24 23 23 24 23 23 21 18 16 18 23 28 31 29 27 27 28 28 28 29 29
11 13 14 15 15 13 13 15 16 16 16 15 14 12 11 11 11 11 10 9 8 9 10 11 12 13 13 14 14 13 14 16 18 19 19 20 20 22 25 26 24 22 20 21 23 24 25 24 23 23 21 19 20 23 20 15 12 13 14 16 18 20 21 22 23 24 24 23 23 22 22 23 23 21 18 18 20 23 28 31 29 28 28 28 27 27 26
10 11 12 14 14 15 15 15 15 16 16 15 14 13 11 11 11 11 10 9 8 9 10 11 11 12 13 13 12 11 12 15 16 17 18 18 18 19 22 22 21 18 17 18 20 19 19 20 20 19 19 19 19 19 16 12 12 13 14 15 18 19 20 21 22 23 23 23 22 21 21 22 23 23 21 20 18 19 25 30 31 30 29 29 29 27 25
11 10 12 13 15 16 16 15 15 15 16 16 15 13 12 11 12 10 9 9 8 9 10 11 11 13 13 11 10 11 12 14 15 15 16 17 17 18 18 18 18 17 13 12 14 12 10 12 14 15 18 19 18 17 15 12 12 14 15 15 16 17 18 19 20 20 22 22 22 20 19 20 22 23 23 22 20 19 22 28 32 31 29 29 29 29 27
14 13 13 14 16 17 16 16 15 16 15 15 14 12 11 11 10 9 8 8 8 9 9 10 12 12 11 9 9 10 12 12 13 13 14 15 17 18 17 15 15 15 13 9 5 5 6 6 8 11 15 16 15 15 16 15 14 15 17 16 14 13 14 17 18 18 20 21 21 20 19 19 20 21 22 23 22 20 20 24 29 31 29 28 29 28 28
17 16 13 14 16 18 17 16 16 15 14 13 12 11 11 10 9 9 8 8 8 8 9 10 11 11 9 7 8 10 11 12 13 13 14 15 16 16 16 14 13 13 13 12 7 2 3 4 3 5 9 10 11 14 17 16 14 15 16 15 13 11 11 13 15 16 18 19 20 19 19 18 18 18 20 21 22 21 20 20 23 26 27 27 27 27 27
16 14 11 11 13 15 14 14 14 14 14 13 12 11 11 10 8 8 8 8 7 7 9 10 10 9 7 7 8 9 10 12 13 14 15 15 15 14 15 15 12 11 11 12 11 7 3 3 3 6 8 9 10 13 14 13 11 11 13 13 12 10 10 11 11 13 15 17 18 18 18 17 16 17 17 18 19 20 20 19 20 22 24 25 25 25 26
14 13 11 10 11 12 11 11 12 13 13 13 12 11 10 9 8 8 8 6 5 6 8 9 8 7 6 6 7 7 8 11 13 13 13 13 13 13 14 14 12 10 10 11 12 10 6 5 7 9 10 10 9 10 11 13 12 11 11 12 11 10 10 10 10 11 14 16 17 17 16 16 16 16 16 16 16 17 18 19 18 19 21 22 23 22 22
11 11 10 10 11 12 11 10 10 11 12 11 11 10 9 8 8 7 6 5 5 6 7 7 7 6 6 6 6 7 8 9 10 10 10 10 11 11 12 12 11 10 11 12 13 11 8 7 9 10 8 7 7 8 10 13 13 11 10 10 10 10 10 10 8 9 12 14 15 15 15 15 16 16 15 15 14 14 15 16 16 16 17 18 19 19 19
9 9 10 10 11 11 10 10 11 11 11 11 10 9 8 8 7 7 5 4 5 6 6 6 5 5 5 6 6 6 7 8 8 8 9 10 9 9 10 11 11 10 11 13 14 13 10 10 10 8 6 5 6 7 9 11 12 11 10 10 9 9 9 9 9 9 11 12 12 13 13 14 14 14 14 13 12 12 12 13 14 14 14 14 15 16 17
10 11 12 13 12 12 11 11 11 11 11 11 10 9 8 8 8 7 5 4 5 5 5 4 4 3 4 4 4 5 6 7 8 9 10 10 10 10 10 10 11 11 11 13 14 12 11 11 10 8 6 7 8 8 8 9 10 10 10 10 10 10 9 9 10 10 10 10 10 10 10 11 11 12 12 12 11 11 12 13 13 13 12 12 12 12 13
9 11 14 16 16 15 13 12 12 12 12 11 10 9 8 8 8 7 5 5 5 5 4 3 2 2 2 2 3 5 6 7 9 10 11 11 11 11 10 11 12 13 12 12 13 13 11 11 10 8 8 8 8 8 9 10 10 9 10 11 12 12 11 10 10 10 10 9 9 8 8 9 10 10 11 11 11 11 11 12 12 12 12 11 11 10 10
8 9 11 14 15 14 14 14 14 13 13 11 10 9 9 9 8 8 6 5 4 3 3 2 2 1 1 2 3 5 6 8 9 10 12 13 12 11 11 12 14 15 14 13 13 13 13 11 10 9 10 10 9 9 10 10 9 9 10 12 13 13 12 11 11 10 10 10 10 9 8 9 9 8 9 9 9 10 10 10 10 11 11 12 11 10 9
9 10 12 13 14 14 14 15 15 14 13 11 10 9 9 9 9 8 7 5 4 4 3 3 2 2 1 2 3 5 6 8 9 10 12 14 13 11 12 14 14 14 15 14 12 11 13 13 11 11 12 11 10 10 11 9 8 8 9 11 12 12 11 11 12 12 11 11 11 10 9 8 7 6 6 7 7 8 8 8 8 8 9 9 9 8 7
11 12 13 14 16 16 16 16 15 14 13 12 10 9 9 9 9 9 7 6 5 5 4 3 2 1 0 2 4 5 6 7 9 10 12 13 12 11 12 14 13 13 15 15 11 11 12 13 13 14 14 13 12 11 10 8 8 8 8 8 9 10 11 11 11 11 11 11 10 10 9 7 6 5 5 6 5 5 6 6 5 5 6 7 6 5 4
14 15 16 16 16 16 16 17 17 15 13 12 10 9 9 9 9 9 8 8 7 6 4 4 2 0 1 3 5 7 6 6 8 10 12 12 11 11 12 13 12 12 14 14 12 11 12 12 14 15 14 12 11 10 8 7 8 7 6 6 7 9 10 11 11 10 10 9 9 9 9 8 7 5 4 5 4 4 4 3 2 3 4 4 3 2 2
11 13 15 17 18 16 14 16 16 15 13 12 11 11 10 10 9 9 9 9 8 7 5 4 2 1 2 4 6 7 7 6 6 8 10 11 12 12 13 14 13 13 14 13 12 12 13 13 14 14 13 11 10 9 7 7 7 7 5 5 6 7 9 11 11 10 9 8 8 7 8 8 7 6 4 4 4 2 2 1 2 3 3 2 1 3 6
9 9 10 14 17 17 14 14 15 15 14 13 12 11 11 10 10 10 9 9 8 6 4 2 1 1 3 5 5 6 7 6 6 7 8 9 10 11 13 13 13 13 13 12 11 13 14 14 13 13 12 10 8 7 6 6 6 7 6 5 5 5 6 8 9 10 10 8 6 5 6 7 7 6 5 4 3 2 1 2 4 6 7 6 5 6 8
6 7 8 8 12 15 15 15 15 14 14 13 13 13 12 11 10 10 9 8 7 5 3 1 0 1 3 5 6 6 6 6 5 6 7 9 9 10 11 12 13 13 12 11 11 14 16 15 13 11 11 9 7 6 6 6 6 6 6 5 4 3 4 4 5 7 8 8 7 6 5 6 6 6 6 6 4 4 4 5 7 9 10 11 10 10 10
3 5 6 6 10 15 18 18 17 16 14 14 15 15 14 12 11 10 9 8 6 4 3 1 0 2 4 5 6 6 5 5 5 5 6 8 9 10 11 11 12 12 12 11 11 13 15 15 13 11 10 9 8 7 7 6 5 5 5 4 4 3 2 2 2 3 5 6 6 4 3 4 5 6 6 6 5 6 7 8 10 11 12 13 13 13 13
3 5 6 7 12 18 21 21 20 19 18 17 17 16 14 13 12 10 8 7 5 3 2 1 1 3 4 4 5 6 5 5 5 5 6 7 8 9 10 11 11 11 12 11 11 12 14 15 14 13 13 12 12 10 9 7 5 4 4 4 4 3 2 1 2 2 3 4 4 3 3 4 5 7 9 9 9 9 9 10 11 12 12 13 13 13 13
4 6 7 10 16 21 22 20 19 17 16 16 17 17 16 14 12 10 8 6 4 3 2 1 1 2 4 4 5 5 4 4 4 5 6 6 7 7 9 10 10 10 11 12 11 12 13 14 14 14 14 14 14 14 14 13 11 8 5 5 5 4 3 2 1 0 1 2 3 3 4 5 7 8 10 10 11 11 11 11 11 12 12 13 13 13 13
6 7 9 12 16 19 19 18 17 17 15 15 17 18 17 13 11 10 7 5 4 3 2 2 2 3 4 4 4 4 4 4 4 5 6 7 7 8 8 9 9 10 10 11 11 12 12 13 13 13 13 13 13 13 14 17 18 17 15 13 13 13 12 11 9 8 7 6 5 5 6 7 9 10 11 12 13 14 14 14 14 14 14 14 15 15 15
9 10 12 13 13 13 12 11 12 13 14 13 14 15 13 11 10 9 7 6 4 4 3 2 3 3 3 3 3 3 4 4 4 5 6 7 8 9 9 9 10 10 9 9 9 10 11 11 12 13 13 14 15 15 16 17 18 19 18 17 17 18 18 18 18 17 16 16 15 14 14 14 14 15 16 16 16 16 17 17 17 17 17 16 16 16 16
Wind_Direction
80 70 71 68 67 95 99 78 68 49 32 37 57 68 53 9 346 124 127 152 149 131 129 118 88 68 62 57 55 54 47 41 39 37 37 36 33 31 28 25 25 27 33 41 46 49 49 46 43 38 7 212 207 209 210 214 224 229 227 225 229 238 245 245 245 250 252 250 249 248 246 242 238 236 236 235 234 234 236 238 237 235 234 234 237 239 239
98 78 82 86 72 148 158 129 112 96 57 77 85 78 75 73 89 111 126 135 122 113 118 110 94 75 61 53 49 52 50 43 39 37 36 34 32 30 26 23 20 18 23 31 38 44 45 46 45 39 31 13 243 228 219 212 211 214 224 230 229 234 246 253 252 250 252 252 250 250 250 248 243 240 239 239 239 238 239 239 239 238 236 235 235 237 240
120 95 105 119 120 198 179 157 163 172 160 145 140 121 108 110 118 124 130 131 127 132 134 120 116 90 63 49 38 44 47 42 38 37 35 31 29 27 24 21 18 16 17 21 27 33 39 42 42 39 35 26 4 301 251 240 225 213 218 232 235 233 242 253 255 253 253 255 253 252 252 251 249 246 243 243 242 242 242 242 241 240 240 239 237 236 238
141 126 161 163 161 210 210 193 182 184 186 171 149 139 124 122 140 146 157 156 136 142 163 155 146 105 66 43 30 33 38 37 34 33 32 28 24 23 22 19 17 16 15 15 16 20 25 31 34 35 35 30 18 0 316 279 257 238 231 237 241 240 243 250 255 257 257 257 257 255 254 254 253 252 250 249 247 246 245 245 244 244 242 242 241 239 238
141 133 188 254 215 220 214 175 159 171 175 146 130 132 102 32 168 175 188 146 112 119 163 180 157 103 60 40 28 23 25 28 28 28 28 24 20 18 16 15 15 14 13 12 11 12 14 15 18 23 29 33 32 19 355 321 280 256 246 243 241 242 247 248 249 254 259 260 259 258 257 257 257 256 256 255 252 251 250 249 249 248 246 245 244 243 242
146 140 185 227 225 219 149 99 102 111 141 165 172 150 124 100 314 76 82 93 111 123 131 113 96 52 47 53 41 25 19 17 18 22 24 21 18 14 10 8 8 8 8 8 9 10 11 11 10 10 16 27 36 30 13 351 321 282 256 250 244 240 245 247 245 248 253 257 260 260 259 259 259 257 257 258 257 256 255 254 253 251 248 247 247 245 244
149 142 190 214 218 167 102 100 107 100 103 176 152 117 121 143 183 141 122 113 123 122 100 101 291 304 253 193 37 18 15 14 13 13 13 13 14 11 6 4 2 0 360 2 6 9 10 9 9 6 6 17 28 24 16 9 355 332 293 269 258 248 243 242 244 247 247 249 255 259 260 260 260 259 258 258 259 258 256 255 255 255 253 250 249 248 246
166 175 203 202 126 113 122 129 139 140 156 181 173 162 165 177 199 184 160 143 149 163 180 226 280 292 265 238 223 126 22 15 11 6 3 1 2 3 3 0 357 355 354 355 359 4 6 4 4 4 4 10 20 19 12 13 11 357 333 302 275 259 249 242 240 243 246 248 249 252 256 258 258 258 258 257 257 258 257 253 252 254 257 255 252 249 248
222 229 217 167 119 158 170 167 167 171 179 184 203 224 176 161 182 211 175 164 186 205 208 270 295 288 269 250 218 175 53 15 5 359 355 351 349 352 353 353 354 351 349 349 351 356 360 357 356 0 2 4 10 13 8 11 16 10 353 329 297 269 253 245 240 237 239 245 248 248 250 255 256 255 254 254 254 255 258 255 250 249 254 257 256 253 251
230 257 236 195 209 212 170 148 150 155 140 117 188 282 195 159 168 195 182 174 190 205 219 298 301 283 263 246 199 148 35 3 356 349 344 341 341 342 341 342 345 345 343 342 345 348 350 349 350 354 354 357 0 0 359 5 12 15 7 349 329 301 266 248 241 237 235 238 245 247 246 250 254 254 253 254 253 253 255 255 252 248 246 251 255 257 257
217 245 248 226 227 178 120 130 142 148 142 131 180 256 217 159 157 168 168 160 166 183 263 323 315 283 253 226 111 58 358 344 346 341 335 333 332 331 333 334 333 334 337 337 339 342 339 340 347 348 343 347 351 352 352 355 1 11 14 4 352 338 311 276 250 238 233 231 236 244 245 245 248 251 253 254 254 254 255 254 254 250 245 243 247 253 258
216 232 253 252 245 102 124 141 146 143 144 171 219 240 196 144 144 146 146 142 147 159 312 309 293 280 274 308 356 354 336 329 329 326 325 326 324 323 325 325 322 325 330 330 332 335 333 334 341 340 337 341 343 341 346 350 349 357 8 9 6 358 342 318 289 261 243 233 230 234 241 243 243 246 250 251 250 251 252 251 251 249 246 243 243 246 252
215 220 244 253 249 110 135 150 148 141 151 203 235 226 123 135 141 135 138 150 149 198 288 288 280 295 312 316 322 325 321 318 317 315 315 315 314 316 316 314 314 316 319 320 321 324 326 329 334 332 331 336 337 333 334 340 341 345 353 2 8 7 358 338 319 301 273 249 238 233 234 240 241 239 241 244 244 244 245 246 247 248 247 245 243 244 248
230 226 242 251 243 129 143 150 147 156 185 228 181 111 113 133 142 137 162 239 305 267 279 288 284 293 303 303 306 310 310 311 310 310 312 310 307 308 309 310 313 314 311 310 311 314 318 321 325 325 324 327 331 330 328 326 328 334 340 348 1 6 2 350 329 312 298 276 254 241 237 240 242 239 237 239 240 240 241 243 245 248 249 247 245 244 244
235 236 231 245 263 136 149 152 152 183 215 123 106 123 130 138 146 154 217 247 273 282 287 295 292 296 300 298 301 304 304 307 308 307 310 310 307 306 306 308 313 311 305 303 304 306 309 311 314 318 318 317 320 324 324 320 317 320 326 335 347 356 353 348 339 320 303 295 281 258 246 244 246 245 242 241 243 246 248 249 249 248 247 246 245 244 244
217 235 219 221 61 127 156 166 169 199 191 129 112 138 150 153 173 198 227 223 225 266 285 293 295 298 299 298 301 303 301 303 306 306 307 308 308 307 305 305 307 307 303 300 296 295 298 301 303 308 310 309 312 316 317 315 314 313 314 320 333 345 340 335 341 338 316 300 295 290 271 254 247 244 242 242 246 249 249 249 249 248 248 248 246 246 245
231 273 306 77 84 129 169 189 183 144 158 146 136 183 200 193 205 215 225 222 221 253 276 287 291 294 298 300 301 301 301 302 304 306 307 307 306 307 306 304 304 304 301 297 293 290 291 293 296 299 301 302 304 307 308 309 311 312 310 309 317 330 333 328 334 344 338 316 298 295 295 274 251 244 243 243 245 246 246 245 245 246 249 249 247 248 249
259 272 256 221 180 174 187 198 184 159 165 169 172 205 238 230 214 208 223 239 248 264 277 286 288 290 296 300 300 301 303 304 303 304 305 305 305 305 305 304 303 301 299 297 295 292 289 288 291 292 293 295 298 301 304 306 307 309 309 306 308 314 319 323 327 334 341 334 312 296 291 282 262 250 247 245 245 245 245 244 244 246 248 248 248 251 253
247 253 230 220 227 220 207 206 200 191 192 189 188 215 235 221 208 213 227 245 262 273 280 283 286 291 297 299 301 304 303 302 302 302 302 303 303 302 302 302 303 302 299 297 297 294 289 286 285 285 285 287 292 298 302 303 302 305 306 304 304 305 306 310 316 319 331 340 329 306 291 281 268 258 250 245 245 246 246 244 244 245 247 250 252 253 254
235 252 232 203 214 214 213 217 215 209 212 210 207 217 220 208 206 216 227 244 261 275 282 283 286 292 297 299 302 303 302 300 300 299 299 300 300 300 300 300 301 301 299 296 295 294 290 285 282 280 280 281 284 292 298 297 295 299 302 301 301 301 300 302 305 306 316 333 337 324 304 288 276 266 256 249 246 247 247 247 248 250 251 254 255 253 253
241 252 240 218 207 210 218 222 222 222 221 216 211 212 211 209 211 219 231 244 256 271 281 287 289 291 297 302 302 301 301 301 299 298 297 297 296 296 297 297 297 296 295 294 293 290 289 287 283 278 276 276 279 284 290 292 291 293 298 299 298 297 297 298 298 299 303 313 328 333 323 303 287 277 269 263 258 253 248 245 244 247 251 253 253 254 256
241 245 237 229 233 248 242 227 221 221 216 209 212 214 211 213 219 226 235 244 255 268 278 285 288 291 296 299 299 299 300 300 300 299 298 296 295 295 294 294 294 293 291 291 290 288 286 286 284 278 273 272 274 277 281 284 287 290 295 296 295 295 296 296 295 295 300 303 308 322 327 318 306 294 284 278 272 265 259 256 251 247 245 248 251 256 257
258 265 274 268 258 267 269 246 223 216 210 208 213 214 213 218 225 227 233 244 255 268 277 282 284 288 292 295 296 298 299 299 300 300 298 296 295 294 293 292 291 290 289 288 286 285 285 285 284 279 272 268 267 269 272 275 281 286 290 292 293 293 293 293 292 291 294 296 297 304 315 316 314 310 303 293 285 277 270 267 264 259 253 251 254 258 260
265 268 276 277 262 259 261 244 218 205 202 204 209 210 213 220 223 225 232 242 255 270 278 280 282 286 290 293 295 297 298 299 300 300 298 297 295 293 292 290 288 288 288 286 283 282 282 284 283 278 271 264 261 262 265 268 276 283 284 286 290 292 292 291 290 289 290 292 291 294 304 310 309 311 313 310 301 291 284 279 274 269 263 259 257 258 261
261 263 269 269 261 256 251 236 222 208 198 198 204 209 212 215 217 223 234 245 257 269 276 280 283 288 292 295 297 297 298 300 300 300 299 298 296 295 292 290 287 285 284 283 281 279 279 280 279 276 271 262 255 255 259 263 270 277 280 282 286 290 292 292 290 288 290 291 290 290 298 308 307 305 309 315 315 308 299 292 285 278 272 266 261 260 262
258 261 263 261 255 247 236 226 219 207 197 196 204 209 208 211 216 223 233 246 258 268 274 280 285 289 292 295 298 299 300 300 300 301 300 299 299 298 295 292 289 285 282 280 278 276 276 276 275 272 268 259 252 253 256 259 264 270 276 281 284 286 290 291 289 288 288 289 290 292 294 300 307 304 302 307 313 314 310 304 296 288 280 272 265 260 261
253 253 250 246 243 233 221 215 212 203 197 199 204 206 206 213 221 226 234 247 259 268 275 281 286 289 292 296 299 300 300 301 302 303 302 302 301 300 297 295 292 286 280 276 274 273 272 272 270 267 261 254 247 246 249 253 259 269 275 278 281 284 287 288 287 286 286 286 289 292 292 292 299 302 298 298 304 311 314 313 308 299 289 281 272 264 260
254 250 238 234 238 232 220 219 219 211 203 202 202 201 207 217 226 233 242 251 259 267 276 282 286 289 292 296 299 300 301 303 304 305 305 305 305 303 303 302 298 290 279 272 269 268 268 268 265 260 256 250 242 240 245 251 260 269 274 276 278 281 284 285 283 283 284 286 287 290 291 290 292 296 296 292 296 304 310 312 312 308 300 292 285 277 272
251 244 234 232 239 239 225 220 218 210 203 199 196 199 210 220 229 236 243 251 258 267 275 280 283 287 292 295 298 300 303 304 305 307 307 306 307 310 312 309 303 294 280 268 264 264 264 262 258 254 252 246 239 240 244 249 258 267 271 274 277 279 281 282 281 280 281 284 287 289 290 289 288 291 294 289 287 293 301 306 308 309 307 302 296 290 287
248 240 234 230 230 227 219 214 211 206 201 196 194 201 212 222 233 241 246 252 260 268 274 280 285 289 293 296 297 300 306 307 307 309 310 307 309 316 320 317 310 301 288 272 264 263 260 255 252 251 247 239 235 239 243 246 256 266 270 273 277 279 279 279 278 278 277 281 285 288 290 289 287 286 288 286 282 284 291 297 302 305 306 306 302 297 293
246 238 232 226 221 217 215 213 209 204 200 198 201 208 214 222 232 242 249 255 263 269 274 280 287 292 293 295 298 304 308 309 310 312 312 310 313 322 328 328 327 321 302 279 270 267 260 253 251 247 238 232 232 237 241 249 260 266 269 273 276 278 277 276 275 273 272 275 281 286 289 290 288 286 286 288 285 279 280 288 297 301 302 302 303 302 296
242 234 228 222 215 211 211 209 205 201 201 204 207 211 216 223 231 240 248 253 260 269 276 282 288 290 292 296 302 306 310 312 315 316 314 313 318 326 331 332 334 336 324 289 270 261 249 243 241 235 232 235 237 240 246 257 265 267 270 274 276 275 275 274 271 268 268 270 274 279 284 287 288 288 288 289 289 282 275 278 286 294 296 295 297 299 297
228 225 223 216 210 208 208 206 205 205 206 208 210 210 213 222 230 237 244 250 257 267 277 283 286 287 291 297 301 306 313 318 320 320 319 318 320 325 333 336 333 334 338 330 290 226 198 202 216 227 233 236 236 243 254 263 267 271 274 275 274 272 272 272 270 267 264 264 266 271 277 281 284 287 289 289 289 289 282 275 278 286 292 292 290 291 292
224 225 227 218 211 210 210 207 206 207 208 208 207 205 208 216 224 230 238 245 255 266 274 279 282 285 289 295 301 308 316 321 322 323 324 323 321 322 330 338 339 334 334 335 330 290 189 177 193 229 236 235 239 252 262 268 271 274 277 275 272 271 271 271 270 267 263 261 261 264 270 275 278 282 285 287 287 289 290 285 282 284 288 288 287 287 288
223 224 229 225 216 212 211 207 205 205 204 201 197 196 200 207 214 224 234 240 249 263 271 276 282 285 287 292 301 308 314 318 322 324 323 322 322 324 327 331 337 342 338 331 329 324 286 234 254 267 262 260 263 265 268 272 273 272 272 271 269 269 269 269 269 266 264 263 262 262 266 273 276 277 280 283 284 285 288 290 289 287 287 287 286 284 282
219 218 220 216 206 201 199 198 197 196 195 192 190 190 195 200 205 215 226 234 245 262 271 276 281 285 287 293 302 307 312 318 321 322 320 317 317 323 328 329 332 342 344 334 329 329 321 295 293 290 280 275 275 274 272 272 271 269 270 269 267 267 268 267 267 265 264 264 263 263 265 272 277 279 280 280 281 283 285 287 289 288 288 289 288 284 280
212 212 212 205 196 190 187 184 184 184 183 182 182 184 189 195 202 208 214 225 245 260 266 272 280 287 292 298 303 308 315 321 323 326 329 326 321 323 331 334 336 344 348 342 333 332 331 326 319 313 302 289 284 281 276 272 268 267 268 267 264 264 266 266 264 262 263 264 264 265 267 272 278 283 283 280 280 283 284 284 285 286 287 288 287 285 282
208 202 197 192 186 182 178 176 175 176 177 177 177 180 186 194 199 198 197 215 244 255 261 271 284 294 299 304 310 314 318 323 327 332 337 339 337 335 336 336 337 341 342 338 332 328 327 329 329 326 319 309 299 290 285 280 274 269 265 261 259 262 263 262 261 259 258 260 264 268 272 277 281 283 283 282 282 285 287 287 287 286 285 285 285 284 283
213 206 202 198 192 185 181 179 178 178 177 177 178 183 189 193 191 185 186 211 235 243 251 264 277 292 305 314 322 321 319 323 331 333 332 333 337 338 335 335 337 338 336 335 334 330 326 328 332 331 322 312 305 298 294 290 283 276 267 258 254 255 256 257 259 257 253 254 261 268 273 278 281 281 281 283 286 289 291 293 293 291 289 288 287 285 283
222 217 216 214 210 204 200 199 197 191 183 179 181 187 192 190 182 176 184 212 228 233 238 244 256 291 317 324 325 322 323 331 337 336 332 330 330 331 331 331 334 338 341 339 335 332 330 329 332 331 324 318 313 306 297 289 282 276 267 254 247 246 248 250 254 253 249 248 252 258 264 269 273 277 281 286 291 294 295 295 295 296 297 298 297 293 285
233 225 218 214 210 206 202 202 200 193 184 181 186 188 187 184 180 177 185 204 214 216 215 203 189 202 274 307 323 325 327 333 336 336 335 335 331 328 328 328 329 335 342 341 333 331 333 334 333 332 329 325 320 310 299 287 277 271 265 254 246 244 245 248 250 249 248 246 245 246 250 257 263 270 278 287 295 300 299 296 296 299 301 301 301 298 290
233 232 224 216 210 205 200 197 194 188 183 185 191 192 187 185 182 180 182 187 187 184 183 173 157 159 206 299 320 320 320 326 331 334 337 338 335 329 329 331 331 334 339 340 335 330 332 332 330 331 332 329 321 312 302 290 277 269 265 259 251 246 247 250 250 248 248 248 247 244 243 245 250 262 276 285 295 302 301 298 299 303 305 302 297 291 285
235 232 228 219 210 204 201 198 192 185 182 186 192 193 190 187 183 179 176 172 168 167 168 166 161 167 278 324 328 326 324 328 333 337 338 338 338 336 336 338 337 336 340 343 341 334 333 335 332 330 329 327 322 319 314 303 288 276 270 266 259 251 249 252 253 251 251 251 249 244 239 232 231 247 266 276 285 296 300 299 304 313 315 306 292 280 275
249 241 238 233 222 209 200 193 187 182 180 183 185 185 185 184 180 176 171 165 161 164 171 174 177 213 339 341 340 339 337 334 337 341 341 340 342 346 346 345 341 337 339 344 344 341 341 340 335 330 328 328 328 329 327 317 306 297 285 274 265 257 253 254 254 251 249 249 247 242 233 224 221 236 260 269 277 289 296 301 327 355 346 320 284 233 145
260 250 243 238 232 220 201 187 183 181 177 174 173 175 178 177 174 172 169 163 161 165 174 174 166 5 351 350 347 343 342 342 348 352 350 346 345 346 348 348 346 342 340 342 344 346 346 343 336 332 334 335 335 334 333 329 328 326 314 294 278 265 260 259 256 252 248 246 245 240 229 219 215 221 238 250 256 266 279 323 67 69 58 47 130 143 132
251 246 237 228 224 218 203 183 176 177 172 166 168 173 174 172 170 170 167 163 162 166 172 166 141 359 349 354 355 346 340 344 358 5 2 355 349 345 347 350 350 349 347 346 345 346 347 345 340 340 344 345 341 338 338 342 348 349 341 328 315 295 276 264 257 250 245 240 234 226 218 212 207 205 210 218 220 201 154 122 110 106 105 105 108 115 121
232 227 232 224 215 211 200 183 174 173 168 165 171 177 174 168 166 166 163 162 164 167 170 167 98 19 5 3 359 346 337 341 356 7 4 357 351 350 354 356 355 355 358 356 350 349 350 350 348 348 350 351 350 348 346 345 348 351 349 347 347 336 308 278 260 252 247 243 240 235 225 214 202 191 190 192 187 163 143 134 128 123 120 118 115 112 112
232 210 225 218 198 194 190 182 177 179 179 178 180 180 172 163 161 163 163 163 165 164 161 163 49 35 27 13 356 341 338 346 355 360 1 358 356 357 359 358 357 2 9 7 360 357 2 6 9 8 6 4 3 360 353 344 339 341 347 351 353 351 338 295 264 253 247 243 242 239 231 220 203 182 170 166 159 148 140 137 135 133 131 128 126 124 122
252 213 219 205 185 181 180 176 177 184 188 184 178 173 165 159 160 162 161 159 161 161 157 147 34 26 28 13 347 335 342 359 3 360 2 5 6 5 3 1 1 7 14 15 11 10 14 19 23 25 25 25 25 23 18 8 352 339 341 348 349 347 338 298 261 253 246 241 232 207 174 171 171 164 156 150 146 146 146 143 141 138 136 133 131 130 129
221 204 205 192 180 177 176 175 175 179 181 176 171 170 170 167 164 161 157 157 162 170 170 157 47 21 20 8 343 333 345 10 14 6 8 13 15 14 12 10 8 11 16 20 22 22 20 21 25 29 33 36 37 39 41 43 41 39 40 46 45 37 34 31 12 262 234 230 223 202 171 156 155 154 150 144 139 137 135 133 131 130 128 127 126 124 122
182 183 183 176 171 173 175 176 175 175 177 177 176 176 174 167 154 148 150 157 163 169 169 147 78 33 17 3 347 346 3 25 26 18 19 22 25 28 27 22 17 16 19 24 27 28 26 27 31 36 38 41 42 45 50 55 57 56 58 63 68 68 68 68 70 74 82 92 103 111 116 120 125 126 124 122 121 119 117 116 115 114 113 114 114 114 112
156 159 155 151 151 153 151 150 155 161 165 166 166 166 164 158 151 150 155 159 157 154 149 124 79 48 25 10 7 15 29 37 35 31 30 30 32 38 39 34 27 26 27 27 28 28 27 29 35 40 44 47 51 53 56 61 62 60 59 61 65 68 72 75 78 80 84 88 91 94 98 102 106 109 109 109 109 109 108 107 106 104 103 102 103 103 104